UWE-3

Last updated on Mon Sep 21 2026 00:03:14 GMT+0000 (Coordinated Universal Time)

1 39446U 13066AG 26263.51239731 .00003063 00000+0 26126-3 0 9993 2 39446 97.8816 220.3134 0048715 4.1422 356.0193 14.97594990691842
UTC large
Height (km)
Speed (km/s)
/
Latitude / Longitude
Inclination (degrees)
Orbital Period (minutes)
Azimuth
Elevation
Range (km)
Doppler Factor

Next 0 passes for location: London (51.5072 / 0.1276)

No passes found over London.
UWE-3